Vorticity
nan nan nan nan nan nan nan nan nan nan nan nan nan nan nan nan nan nan nan nan nan nan nan nan nan nan nan nan nan nan nan nan nan nan nan nan nan nan nan nan nan nan nan nan
nan 11 15 9 4 3 5 8 7 13 15 6 11 10 15 8 4 9 3 8 6 6 11 14 8 7 10 7 5 7 6 5 5 5 6 9 9 8 9 9 12 10 7 nan
nan 7 10 9 2 6 7 4 9 20 4 3 8 9 13 8 3 4 5 9 8 9 6 12 11 8 8 8 9 7 9 6 5 4 4 7 8 9 9 9 11 14 11 nan
nan 6 6 11 18 7 5 11 8 10 8 11 4 8 10 16 9 6 8 4 7 7 9 8 8 12 9 8 7 8 9 9 7 6 5 5 7 7 8 10 10 13 13 nan
nan 3 10 14 17 10 4 12 18 6 5 10 5 10 11 12 12 16 17 15 12 9 10 6 9 13 11 10 7 8 8 9 11 6 6 4 6 8 8 10 12 12 14 nan
nan 8 11 5 7 10 13 9 7 13 8 9 13 6 10 11 10 12 14 19 20 15 10 7 9 8 14 14 9 10 10 8 9 10 9 9 6 6 8 9 9 9 9 nan
nan 14 11 7 8 10 11 10 6 5 13 12 9 6 12 10 11 9 11 10 14 15 16 13 9 5 10 11 7 7 6 8 11 10 8 10 8 9 7 6 9 9 7 nan
nan 10 15 12 9 8 5 10 6 9 8 10 11 8 14 14 10 8 8 7 7 10 15 19 11 7 9 10 9 7 5 7 10 7 7 9 8 5 7 11 9 8 9 nan
nan 7 10 11 12 7 7 11 10 8 7 10 6 6 11 12 10 13 13 12 7 8 11 13 12 11 10 10 10 10 9 8 11 9 6 7 9 7 8 6 6 8 9 nan
nan 12 5 11 13 10 14 3 7 12 13 7 11 11 11 9 8 7 12 10 6 9 9 11 12 10 8 9 11 11 15 12 13 14 8 7 7 5 7 7 8 8 9 nan
nan 10 7 8 7 10 7 9 12 16 8 9 9 10 16 11 12 10 8 10 9 7 8 8 10 12 12 11 11 11 9 12 15 14 10 7 6 9 7 8 9 8 9 nan
nan 4 12 8 7 13 12 7 10 8 8 10 11 4 14 20 18 12 10 7 7 8 8 8 8 8 9 10 9 9 7 8 12 15 12 10 7 7 5 10 12 12 9 nan
nan 6 6 8 13 14 8 10 13 10 12 10 7 5 10 19 13 11 10 7 7 7 7 6 8 9 8 7 7 5 7 8 9 12 14 13 13 8 10 12 8 5 10 nan
nan 14 13 9 4 2 1 9 10 9 6 14 4 10 6 11 11 8 6 8 7 6 7 6 7 7 8 8 7 7 7 7 8 11 16 16 14 14 14 8 8 8 8 nan
nan 10 8 8 7 6 9 6 6 10 11 9 14 15 9 8 7 9 8 10 12 10 8 8 8 9 9 8 6 7 8 9 9 12 18 17 14 15 10 11 8 10 10 nan
nan 16 10 6 11 11 9 5 8 9 10 12 16 7 13 9 10 12 13 15 14 12 10 8 9 9 9 9 9 8 8 8 8 12 16 18 14 10 8 10 11 10 9 nan
nan 10 9 10 11 6 10 14 11 10 15 17 13 12 9 11 9 8 8 8 10 13 11 9 9 9 10 11 10 10 9 8 9 9 11 13 14 12 10 10 8 12 12 nan
nan 10 8 10 11 14 10 10 15 8 8 9 14 18 13 9 9 8 8 8 7 8 8 9 11 12 12 11 10 11 10 9 9 8 10 9 10 11 13 12 11 11 12 nan
nan 9 12 15 5 4 13 13 10 13 9 10 12 7 9 8 8 9 10 6 6 7 10 13 14 13 13 11 9 9 9 9 9 8 8 9 9 10 10 10 11 9 9 nan
nan 10 10 8 11 11 8 10 11 12 10 13 10 10 9 5 6 11 10 8 8 12 15 13 12 11 11 11 11 9 8 9 8 10 10 10 9 9 9 9 9 10 10 nan
nan 13 11 10 8 11 14 11 16 10 13 13 8 9 7 8 8 10 9 8 12 14 12 11 13 10 8 11 9 7 9 9 10 10 11 10 10 10 9 9 10 10 10 nan
nan 8 8 12 9 9 9 16 16 9 15 12 8 9 8 7 9 10 10 10 9 10 11 13 11 10 11 9 9 10 8 10 12 11 10 9 9 9 11 9 9 10 10 nan
nan 14 12 12 5 7 15 12 11 17 12 12 12 10 10 10 10 11 13 10 8 11 12 13 11 9 9 11 9 7 11 12 11 11 9 9 9 9 9 9 9 10 11 nan
nan 13 7 4 10 15 10 7 11 12 13 11 10 10 9 10 11 13 13 11 10 12 13 11 11 9 8 11 10 10 12 12 10 10 10 9 9 9 9 9 11 10 9 nan
nan 4 12 6 7 13 9 10 10 9 8 8 8 8 6 8 10 13 12 13 12 11 11 11 8 9 10 10 11 12 11 10 9 8 10 10 11 10 10 12 10 7 9 nan
nan nan nan nan nan nan nan nan nan nan nan nan nan nan nan nan nan nan nan nan nan nan nan nan nan nan nan nan nan nan nan nan nan nan nan nan nan nan nan nan nan nan nan nan
CAPE
218 1 33 27 36 150 117 76 142 190 119 111 53 81 109 100 29 23 11 41 137 226 0 0 0 0 0 0 0 0 0 0 0 0 0 0 0 0 0 0 115 90 0 186
4 5 27 148 118 45 92 95 94 49 185 150 177 160 402 225 49 12 0 3 97 134 158 0 0 0 0 0 0 0 0 0 3 5 0 0 0 0 0 0 5 177 202 320
7 37 66 216 106 171 47 41 0 4 206 124 13 0 351 345 114 19 56 9 96 123 223 97 0 0 0 0 0 0 0 0 13 3 0 0 0 0 0 0 12 369 407 581
22 110 355 305 322 138 110 29 39 128 121 32 67 7 69 271 253 113 122 145 111 236 261 162 177 0 0 0 0 0 0 24 1 0 0 0 0 0 0 0 43 621 830 849
281 0 0 24 35 9 0 0 2 11 0 0 13 0 0 11 78 0 0 47 126 409 417 80 288 57 0 0 0 0 0 18 45 22 0 0 0 0 52 606 1063 1194 1231 1152
113 0 0 81 151 32 0 0 0 1 0 0 0 0 0 0 0 0 0 138 353 418 381 273 264 169 307 4 0 0 1 92 59 83 0 0 0 13 511 489 724 514 158 115
0 0 0 72 84 0 0 0 2 2 2 1 0 0 0 0 0 0 0 5 75 259 416 434 329 215 570 205 34 32 0 18 34 0 49 0 67 176 293 349 51 61 2 13
1 10 34 38 2 0 0 0 0 0 0 0 0 0 0 0 0 0 0 38 148 359 455 409 336 404 863 990 646 133 17 71 94 36 79 170 158 156 87 43 37 47 50 35
35 46 19 19 21 0 0 0 0 0 0 0 0 0 0 0 0 0 0 102 103 487 700 542 561 591 803 1009 1072 760 415 232 344 143 4 161 16 8 6 26 32 30 36 26
35 9 0 0 0 0 0 0 0 0 0 0 0 0 0 0 0 0 0 115 173 153 358 564 721 728 772 659 396 417 156 5 32 471 190 125 0 0 0 0 0 4 0 17
0 0 0 0 0 0 0 0 0 0 0 0 0 0 0 0 0 0 0 153 346 444 742 1062 1063 952 894 847 723 671 801 793 763 863 336 134 27 0 3 2 0 1 0 0
15 0 0 0 0 0 0 0 0 0 0 0 0 0 0 0 0 0 7 464 715 826 823 710 751 997 926 669 509 331 185 219 641 570 744 406 213 156 90 4 0 0 0 0
0 0 0 0 0 0 0 0 0 0 0 0 0 0 0 0 0 113 936 1035 936 758 653 664 622 691 627 300 63 0 31 8 32 272 545 596 442 286 46 1 11 1 0 0
0 0 0 0 0 0 0 0 0 0 0 0 0 0 0 17 314 846 1001 892 884 875 635 503 520 568 336 110 4 0 0 0 0 73 576 935 878 289 16 80 2 1 0 2
0 0 0 0 0 0 0 0 0 0 0 0 0 0 1 5 56 308 797 1016 1106 1177 762 477 438 564 221 47 0 0 0 0 0 24 751 898 510 289 256 129 52 74 52 14
0 0 0 0 0 0 0 0 0 0 0 0 0 0 0 0 0 0 2 3 301 1185 1149 723 592 493 387 96 0 0 0 0 0 56 249 582 511 436 326 312 190 103 82 90
0 0 0 0 0 0 0 0 0 0 0 0 0 0 0 0 3 284 231 55 127 1056 1079 863 738 678 499 154 6 0 0 0 1 0 2 124 336 541 238 173 82 86 102 11
0 0 0 0 0 0 0 0 0 0 0 0 0 0 0 1 219 163 0 0 0 0 333 799 755 512 449 138 0 0 0 0 0 2 1 1 0 7 134 0 2 1 2 6
0 0 0 0 0 0 0 0 0 0 0 0 0 0 0 159 84 143 19 22 1 0 0 0 0 588 345 127 0 0 0 0 1 0 0 1 1 1 1 1 1 1 1 1
0 0 0 0 0 0 0 0 0 0 0 0 0 0 0 0 0 0 0 0 0 0 0 589 769 416 339 113 0 0 0 0 0 0 0 0 0 0 1 0 0 0 1 0
0 0 0 0 0 0 0 0 0 0 0 3 0 0 0 0 0 0 0 0 0 0 65 523 703 500 473 28 1 1 0 0 0 0 0 0 0 0 0 0 0 0 3 9
0 0 0 0 0 0 0 0 0 0 0 0 0 0 0 0 0 0 0 0 0 34 284 843 742 599 450 150 43 39 5 1 0 0 0 0 0 0 2 7 2 0 8 11
0 0 0 0 0 0 0 0 0 0 0 0 0 0 0 0 0 0 0 0 0 0 18 1021 913 761 798 334 117 35 72 2 2 0 0 0 0 0 0 0 0 9 13 6
0 0 0 0 0 0 0 0 0 0 0 0 0 0 0 0 0 0 0 0 0 19 738 992 832 699 683 283 375 140 102 0 0 0 0 0 0 0 0 0 1 0 0 0
0 0 0 0 0 0 0 0 0 0 0 0 0 0 0 0 0 18 16 8 0 393 799 527 481 311 355 382 580 284 208 38 4 0 0 0 0 0 0 0 0 0 0 0
0 0 0 0 0 0 0 0 0 0 0 0 0 0 0 0 0 4 43 42 236 686 812 591 214 0 0 0 494 386 270 291 143 43 5 0 0 0 0 0 0 0 0 0